SCP
0 0 0 0 0 0 0 0 0 0 0 0 0 0 0 0 0 0 0 0 0 0 0 0 0 0 0 0 0 0 0 0 0 0 0 0 0 0 0 0 0 0 0
0 0 0 0 0 0 0 0 0 0 0 0 0 0 0 0 0 0 0 0 0 0 0 0 0 0 0 0 0 0 0 0 0 0 0 0 0 0 0 0 0 0 0
0 0 0 0 0 0 0 0 0 0 0 0 0 0 0 0 0 0 0 0 0 0 0 0 0 0 0 0 0 0 0 0 0 0 0 0 0 0 0 0 0 0 0
0 0 0 0 0 0 0 0 0 0 0 0 0 0 0 0 0 0 0 0 0 0 0 0 0 0 0 0 0 0 0 0 0 0 0 0 0 0 0 0 0 0 0
0 0 0 0 0 0 0 0 0 0 0 0 0 0 0 0 0 0 0 0 0 0 0 0 0 0 0 0 0 0 0 0 0 0 0 0 0 0 0 0 0 0 0
0 0 0 0 0 0 0 0 0 0 0 0 0 0 0 0 0 0 0 0 0 0 0 0 0 0 0 0 0 0 0 0 0 0 0 0 0 0 0 0 0 0 0
0 0 0 0 0 0 0 0 0 0 0 0 0 0 0 0 0 0 0 0 0 0 0 0 0 0 0 0 0 0 0 0 0 0 0 0 0 0 0 0 0 0 0
0 0 0 0 0 0 0 0 0 0 0 0 0 0 0 0 0 0 0 0 0 0 0 0 0 0 0 0 0 0 0 0 0 0 0 0 0 0 0 0 0 0 0
0 0 0 0 0 0 0 0 0 0 0 0 0 0 0 0 0 0 0 0 0 0 0 0 0 0 0 0 0 0 0 0 0 0 0 0 0 0 0 0 0 0 0
0 0 0 0 0 0 0 0 0 0 0 0 0 0 0 0 0 0 0 0 0 0 0 0 0 0 0 0 0 0 0 0 0 0 0 0 0 0 0 0 0 0 0
0 0 0 0 0 0 0 0 0 0 0 0 0 0 0 0 0 0 0 0 0 0 0 0 0 0 0 0 0 0 0 0 0 0 0 0 0 0 0 0 0 0 0
0 0 0 0 0 0 0 0 0 0 0 0 0 0 0 0 0 0 0 0 0 0 0 0 0 0 0 0 0 0 0 0 0 0 0 0 0 0 0 0 0 0 0
0 0 0 0 0 0 0 0 0 0 0 0 0 0 0 0 0 0 0 0 0 0 0 0 0 0 0 0 0 0 0 0 0 0 0 0 0 0 0 0 0 0 0
0 0 0 0 0 0 0 0 0 0 0 0 0 0 0 0 0 0 0 0 0 0 0 0 0 0 0 0 0 0 0 0 0 0 0 0 0 0 0 0 0 0 0
0 0 0 0 0 0 0 0 0 0 0 0 0 0 0 0 0 0 0 0 0 0 0 0 0 0 0 0 0 0 0 0 0 0 0 0 0 0 0 0 0 0 0
0 0 0 0 0 0 0 0 0 0 0 0 0 0 0 0 0 0 0 0 0 0 0 0 0 0 0 0 0 0 0 0 0 0 0 0 0 0 0 0 0 0 0
0 0 0 0 0 0 0 0 0 0 0 0 0 0 0 0 0 0 0 0 0 0 0 0 0 0 0 0 0 0 0 0 0 0 0 0 0 0 0 0 0 0 0
0 0 0 0 0 0 0 0 0 0 0 0 0 0 0 0 0 0 0 0 0 0 0 0 0 0 0 0 0 0 0 0 0 0 0 0 0 0 0 0 0 0 0
0 0 0 0 0 0 0 0 0 0 0 0 0 0 0 0 0 0 0 0 0 0 0 0 0 0 0 0 0 0 0 0 0 0 0 0 0 0 0 0 0 0 0
0 0 0 0 0 0 0 0 0 0 0 0 0 0 0 0 0 0 0 0 0 0 0 0 0 0 0 0 0 0 0 0 0 0 0 0 0 0 0 0 0 0 0
0 0 0 0 0 0 0 0 0 0 0 0 0 0 0 0 0 0 0 0 0 0 0 0 0 0 0 0 0 0 0 0 0 0 0 0 0 0 0 0 0 0 0
0 0 0 0 0 0 0 0 0 0 0 0 0 0 0 0 0 0 0 0 0 0 0 0 0 0 0 0 0 0 0 0 0 0 0 0 0 0 0 0 0 0 0
0 0 0 0 0 0 0 0 0 0 0 0 0 0 0 0 0 0 0 0 0 0 0 0 0 0 0 0 0 0 0 0 0 0 0 0 0 0 0 0 0 0 0
0 0 0 0 0 0 0 0 0 0 0 0 0 0 0 0 0 0 0 0 0 0 0 0 0 0 0 0 0 0 0 0 0 0 0 0 0 0 0 0 0 0 0
0 0 0 0 0 0 0 0 0 0 0 0 0 0 0 0 0 0 0 0 0 0 0 0 0 0 0 0 0 0 0 0 0 0 0 0 0 0 0 0 0 0 0
0 0 0 0 0 0 0 0 0 0 0 0 0 0 0 0 0 0 0 0 0 0 0 0 0 0 0 0 0 0 0 0 0 0 0 0 0 0 0 0 0 0 0
Wind_Speed
5 4 3 3 2 2 2 3 3 3 4 5 5 6 6 7 7 8 9 8 10 10 10 12 14 12 10 9 9 9 10 10 15 9 5 7 10 11 10 12 11 13 14
4 4 4 3 3 3 3 4 4 4 4 4 5 5 6 7 7 8 10 9 10 11 11 11 13 10 13 11 10 11 11 12 12 14 5 6 9 10 10 11 11 11 10
5 4 5 5 5 4 4 4 4 4 4 4 4 6 6 7 7 8 9 10 10 11 10 11 11 11 12 10 11 11 10 10 11 11 8 5 5 5 7 8 8 8 10
5 5 5 5 5 5 5 5 5 5 5 5 5 6 6 6 7 7 8 9 10 10 9 10 10 10 11 11 10 11 9 10 10 11 9 4 4 4 6 7 8 9 10
5 5 5 5 5 5 6 6 6 5 5 5 5 6 6 5 6 7 7 9 10 10 9 9 9 10 12 11 9 9 9 9 9 9 9 6 6 6 8 7 9 7 7
5 5 5 5 5 5 6 6 6 6 5 5 5 6 6 6 9 12 10 8 8 9 10 9 8 9 10 14 16 15 13 11 11 10 9 10 10 9 7 7 7 6 6
5 5 5 6 6 6 6 6 6 6 6 6 6 6 7 9 13 13 12 9 9 9 9 8 7 6 8 8 11 15 15 18 17 11 12 11 9 9 9 10 9 8 6
5 5 5 6 7 7 6 6 6 6 6 6 6 7 7 9 12 12 11 8 8 8 8 8 8 8 7 8 8 9 9 10 11 10 10 8 6 7 10 10 9 6 3
6 6 6 6 7 7 7 7 7 6 7 6 6 6 7 9 11 11 10 5 6 8 7 7 7 8 10 11 9 8 8 7 8 10 9 8 9 10 9 6 7 6 4
7 7 7 7 7 8 8 8 6 6 7 7 7 6 7 8 10 12 10 4 6 6 5 5 6 7 10 10 7 7 8 6 3 3 5 6 5 8 13 9 8 7 5
7 8 8 7 7 8 7 6 6 6 7 7 7 7 6 7 10 11 10 5 5 6 5 4 4 7 9 9 8 6 7 4 2 3 2 2 3 3 5 5 5 5 5
7 8 8 8 7 6 6 6 5 5 6 7 6 7 5 5 7 9 11 9 8 6 5 4 4 7 7 7 5 5 6 4 1 2 2 2 2 2 3 4 4 3 2
8 8 8 8 7 6 6 6 6 4 5 5 5 6 7 5 6 9 9 10 10 6 4 6 6 6 5 3 3 3 2 1 1 1 1 1 2 2 3 3 4 4 5
8 8 8 7 7 6 5 5 5 5 5 5 5 6 6 6 5 4 4 4 4 4 3 3 4 3 2 1 1 1 0 1 1 1 1 1 2 2 2 3 3 3 3
8 8 7 7 7 7 6 5 6 6 6 7 6 5 6 7 7 9 6 4 3 2 2 1 1 1 1 2 2 2 2 2 1 1 2 2 2 2 2 2 2 2 2
8 7 6 6 6 6 7 7 8 8 10 10 9 8 6 8 10 9 8 7 6 3 1 1 1 1 1 1 2 2 2 2 2 2 2 2 2 2 2 2 2 2 2
7 8 7 6 6 6 6 6 7 7 6 6 5 6 6 7 7 6 5 4 3 2 1 1 1 1 2 2 2 2 2 2 2 2 2 2 2 2 2 2 1 1 1
7 8 7 6 6 6 6 6 5 6 6 4 4 5 7 7 6 6 5 3 4 4 2 2 2 2 2 2 2 2 2 2 2 2 2 2 2 2 2 1 1 1 1
7 6 6 6 6 6 6 5 5 5 4 4 3 4 6 6 7 9 8 3 2 2 2 3 3 2 2 2 2 2 2 2 3 2 2 2 2 2 2 1 1 1 1
6 9 8 6 5 5 5 4 4 3 3 2 2 3 3 3 3 5 5 4 3 3 3 3 3 3 3 3 2 3 3 3 3 3 2 2 2 2 2 1 1 1 0
6 6 7 6 5 4 4 4 3 2 2 1 1 2 3 2 2 3 3 4 3 3 3 3 3 3 3 2 2 3 3 2 2 2 2 2 2 2 1 1 1 1 1
5 5 5 4 4 4 3 2 2 1 1 0 1 2 5 4 3 2 2 2 2 2 2 2 2 2 2 2 1 2 2 2 1 1 1 1 1 1 1 1 1 1 1
4 5 4 3 3 3 2 2 1 1 1 1 1 1 2 2 2 2 1 1 2 2 2 1 1 1 1 1 1 1 1 0 0 1 1 1 1 1 1 0 0 0 0
4 4 4 3 3 2 2 2 1 1 1 1 1 1 1 1 1 1 1 1 1 1 1 1 0 0 1 1 0 0 0 1 0 1 2 2 1 1 1 1 1 1 1
3 3 3 3 2 2 2 2 1 1 1 1 1 0 0 0 1 1 1 1 1 1 1 1 1 1 2 2 2 2 2 2 1 2 2 2 2 2 2 2 2 1 1
3 3 3 2 2 2 2 2 2 2 1 1 1 1 1 1 2 2 1 2 2 2 2 2 2 3 3 3 4 5 5 5 5 4 3 2 3 3 3 2 3 2 2
Wind_Direction
26 25 28 16 0 345 317 296 286 280 270 259 253 249 246 245 241 241 244 238 236 235 226 225 229 226 228 225 220 219 222 226 253 257 202 193 196 210 215 215 218 220 224
14 22 25 15 8 359 333 316 305 291 280 269 265 259 255 251 246 244 248 245 245 245 239 234 235 228 228 226 223 223 224 221 236 258 231 194 204 208 210 212 213 216 219
12 18 18 10 2 349 333 324 317 306 298 287 272 264 262 258 254 250 251 252 250 250 246 242 241 232 233 228 226 227 226 224 228 244 247 202 197 193 202 211 212 214 216
9 13 9 356 345 334 330 329 324 315 306 298 282 272 267 264 258 257 255 257 257 256 252 248 245 237 237 233 231 232 229 228 227 236 242 212 190 174 187 203 213 213 217
4 5 351 340 337 336 333 327 320 314 304 297 292 287 279 271 263 260 259 259 261 262 257 250 248 245 243 238 235 232 226 232 231 233 237 222 202 185 202 199 212 206 212
357 350 340 342 341 335 326 319 315 312 307 302 294 290 287 280 278 273 267 264 262 262 263 258 252 247 247 248 246 242 232 231 233 232 234 231 223 212 201 197 197 187 208
352 346 345 343 337 330 323 321 316 311 308 303 297 292 287 286 288 283 274 268 265 263 263 263 259 249 244 249 254 253 249 244 239 237 242 237 227 208 196 198 197 196 201
349 346 344 340 331 326 322 317 313 309 305 301 298 294 291 290 293 290 285 273 268 264 258 255 257 257 242 243 247 249 248 247 245 241 244 242 228 202 196 198 194 183 122
349 343 338 332 325 322 318 314 311 309 306 299 295 293 291 294 296 294 290 278 273 271 265 257 255 258 257 250 247 251 256 256 257 246 241 233 216 197 181 168 168 169 177
340 331 326 322 316 311 307 306 305 304 300 301 297 290 285 287 293 294 290 276 277 279 276 265 254 256 263 258 245 243 253 255 237 239 236 227 207 191 186 183 178 177 164
331 323 321 318 311 302 300 300 303 304 304 303 300 298 291 286 291 293 288 275 267 275 277 275 267 267 267 265 255 245 248 247 230 226 219 189 169 177 183 179 178 177 173
326 318 314 310 306 303 300 301 301 301 301 301 302 304 300 295 293 294 291 285 279 272 275 276 273 276 274 274 268 248 244 236 206 190 183 173 169 166 159 157 158 152 134
320 312 307 305 301 297 293 295 298 293 290 295 297 298 301 301 300 304 298 296 289 281 275 276 280 283 282 285 283 256 244 208 179 177 172 159 140 129 123 118 108 97 81
309 306 305 305 305 302 293 285 282 282 282 283 286 290 296 299 300 300 296 300 298 293 293 297 296 297 307 332 347 346 344 153 158 161 145 119 109 113 120 121 122 120 106
304 301 303 299 297 300 293 279 279 268 259 272 276 277 285 293 295 298 302 297 285 262 279 315 338 354 11 20 34 38 47 63 82 98 116 113 112 113 106 103 116 122 130
306 305 301 298 296 293 295 296 284 279 282 279 280 283 280 283 297 300 301 299 295 277 316 356 2 30 34 35 50 47 47 50 52 73 98 111 120 122 111 97 101 124 142
289 292 292 290 288 287 286 288 297 305 300 303 305 313 321 321 319 315 315 325 344 4 36 39 38 41 40 45 50 53 43 34 51 77 87 92 101 110 116 120 122 125 139
285 282 279 279 278 277 277 278 279 284 296 304 322 336 348 353 359 2 7 20 25 33 43 51 51 46 46 50 51 49 51 48 55 66 73 75 83 102 112 121 133 150 163
290 285 279 276 274 275 277 276 273 272 276 288 310 332 355 360 19 26 31 44 58 49 43 48 46 46 45 48 51 53 57 57 55 62 67 67 64 79 90 89 88 90 118
284 285 285 280 278 277 276 274 271 268 273 285 309 321 341 9 20 16 25 34 53 56 49 51 45 42 40 41 44 50 56 55 53 56 55 54 52 66 88 95 98 103 139
290 290 287 282 276 275 275 274 273 269 270 290 319 339 32 57 52 41 38 35 38 42 41 44 43 38 35 36 44 56 64 59 51 50 48 47 52 55 52 65 89 99 107
289 290 289 285 288 288 289 292 290 286 280 297 348 9 51 64 64 57 48 40 32 30 29 47 51 37 27 29 44 65 70 65 56 54 50 46 50 59 64 68 64 70 121
299 300 301 301 301 305 313 322 328 342 7 31 39 38 42 54 60 58 48 37 32 30 28 43 55 38 21 19 24 62 108 140 208 179 154 126 96 89 93 112 145 154 216
312 312 312 315 321 324 328 338 352 6 25 40 38 40 42 41 42 39 24 17 20 17 21 31 36 351 340 345 350 344 254 231 206 196 189 182 180 176 173 183 204 215 224
320 320 320 321 324 325 328 337 346 348 349 349 348 353 1 342 311 304 305 305 306 299 298 287 271 272 279 282 282 278 281 279 234 193 183 178 186 190 191 199 203 205 207
322 322 319 319 319 318 316 316 317 316 311 310 306 299 290 282 277 275 275 274 275 274 273 266 259 261 266 269 270 269 263 255 232 210 185 178 184 196 191 198 205 205 206